Weather Roundup
Issued by NWS Chicago, IL

Home | Current Version | Previous Version | Text Only | Print | Product List | Glossary On
Versions: 1 2 3 4 5 6 7 8 9 10 11 12 13 14 15 16 17 18 19 20 21 22 23 24 25 26 27 28 29 30 31 32 33 34 35 36 37 38 39 40 41 42 43 44 45 46 47 48 49 50
000
NZUS59 KLOT 280307
HRRLOT

CHICAGO AREA WEATHER ROUNDUP
NATIONAL WEATHER SERVICE CHICAGO/ROMEOVILLE IL
1000 PM CDT THU APR 27 2017

NOTE: "FAIR" INDICATES FEW OR NO CLOUDS BELOW 12,000 FEET WITH NO
SIGNIFICANT WEATHER AND/OR OBSTRUCTIONS TO VISIBILITY.

* THESE STATIONS ARE NOT UNDER NWS QUALITY CONTROL. THEY ALSO MAY NOT
  REPORT WEATHER SUCH AS PRECIPITATION OR FOG.

ILZ005-006-012>014-019>023-280400-
NORTHEAST ILLINOIS

CITY           SKY/WX    TMP DP  RH WIND       PRES   REMARKS
OHARE          MOCLDY    44  34  67 SW9       29.82R
MIDWAY         MOCLDY    46  36  68 SW10      29.84R
AURORA         CLEAR     40  36  86 S7        29.84R
LANSING*       CLOUDY    46  40  80 SW8       29.86R
JOLIET*        CLEAR     44  40  86 CALM      29.86R
WAUKEGAN       CLOUDY    43  35  73 SW8G20    29.80R
DUPAGE AIRPORT CLEAR     40  37  89 SW8       29.82R
WHEELING       CLOUDY    44  36  73 W12       29.83R
KANKAKEE*      CLOUDY    47  42  80 CALM      29.88R
MORRIS*        PTCLDY    41  38  89 CALM      29.85R
LEWIS AIRPORT* PTCLDY    42  39  89 SW7       29.85R
NORTHERLY ISL    N/A     46  35  65 W9          N/A
$$

WIZ051-052-058>065-066-070>072-280400-
SOUTHEAST WISCONSIN

CITY           SKY/WX    TMP DP  RH WIND       PRES   REMARKS
MILWAUKEE      CLOUDY    44  32  62 W12       29.77R
KENOSHA*       CLOUDY    43  34  70 W9        29.79R
RACINE*        CLOUDY    43  32  65 W13       29.80R
WEST BEND      CLOUDY    41  34  75 SW9       29.73S
$$

INZ001>003-010>013-019-020-280400-
NORTHWEST INDIANA

CITY           SKY/WX    TMP DP  RH WIND       PRES   REMARKS
GARY*          CLOUDY    48  37  66 MISG      29.86R
MICHIGAN CITY* NOT AVBL
RENSSELAER*    NOT AVBL
VALPARAISO     CLOUDY    49  41  74 SW17G24   29.87R
$$

LMZ740>746-280400-
SOUTHERN LAKE MICHIGAN

STATION/POSITION TIME  SKY/WX   TEMP WIND        PRES    VSBY
                                AIR  DIR/SP/G
                 (UTC)          (F)  (DEG/KT/KT) (MB)    (MI)
HARRISON CRIB    0230            47  250/ 13/ 18   N/A
BURNHAM HARBOR   0300            46  240/  5/ 14   N/A
CALUMET HARBOR   0248            46  210/  6/ 15 1010.1R
BURNS HARBOR     0240            48  250/ 14/ 17 1011.2R
MICHIGAN CITY    0240            47  240/ 22/ 24   N/A
$$

ABBREVIATIONS USED IN REMARKS
   TC - TEMPERATURE IN CELSIUS
  WCI - WIND CHILL INDEX
   HX - HEAT INDEX
  VSB - VISIBILITY
$$




USA.gov is the U.S. government's official web portal to all federal, state and local government web resources and services.